Hourly Data Report for June 12, 2018

LONDON CS
ONTARIO
Current Station Operator: ECCC - MSC

43°02'00.000" N
81°09'00.000" W
278.00 m
6144478
71622
WSN

Download Data

Hourly Data (June 2018)
Hourly Data Report for June 12, 2018
TIME Temp Definition
°C
Dew Point Definition
°C
Rel Hum Definition
%
Wind Dir Definition
10's deg

Wind Spd Definition
km/h
Visibility Definition
km
Stn Press Definition
kPa
Hmdx Definition


Wind Chill Definition


Weather Definition


00:00 13.9 2.8 47 LegendMM LegendMM   98.61     LegendNANA
01:00 13.4 3.4 51 LegendMM LegendMM   98.54     LegendNANA
02:00 13.0 3.8 54 LegendMM LegendMM   98.55     LegendNANA
03:00 12.3 4.6 59 LegendMM LegendMM   98.59     LegendNANA
04:00 11.2 4.8 65 LegendMM LegendMM   98.57     LegendNANA
05:00 11.2 7.0 76 LegendMM LegendMM   98.51     LegendNANA
06:00 13.4 9.8 79 LegendMM LegendMM   98.55     LegendNANA
07:00 16.4 13.3 82 LegendMM LegendMM   98.57     LegendNANA
08:00 18.0 13.6 76 LegendMM LegendMM   98.54     LegendNANA
09:00 19.7 14.2 70 LegendMM LegendMM   98.52     LegendNANA
10:00 21.3 15.3 69 LegendMM LegendMM   98.49 25   LegendNANA
11:00 22.5 15.6 65 LegendMM LegendMM   98.46 27   LegendNANA
12:00 23.8 16.6 64 LegendMM LegendMM   98.45 29   LegendNANA
13:00 24.1 16.1 61 LegendMM LegendMM   98.36 29   LegendNANA
14:00 25.2 17.7 63 LegendMM LegendMM   98.27 31   LegendNANA
15:00 24.8 17.1 62 LegendMM LegendMM   98.20 30   LegendNANA
16:00 24.4 16.9 63 LegendMM LegendMM   98.17 30   LegendNANA
17:00 24.0 16.7 63 LegendMM LegendMM   98.12 29   LegendNANA
18:00 23.7 17.1 67 LegendMM LegendMM   98.07 29   LegendNANA
19:00 23.0 16.9 68 LegendMM LegendMM   98.06 28   LegendNANA
20:00 22.2 16.6 71 LegendMM LegendMM   98.04 27   LegendNANA
21:00 21.2 16.3 74 LegendMM LegendMM   98.02 26   LegendNANA
22:00 20.8 16.3 75 LegendMM LegendMM   98.00 26   LegendNANA
23:00 20.4 16.1 77 LegendMM LegendMM   97.95 25   LegendNANA

Notes on Data Quality.

Legend

  • E = Estimated
  • M = Missing
  • NA = Not Available*
  • [empty] = Indicates an unobserved value
Date modified: